Stations météo

réclame
Mon MeteoGroup
Chievres, Belgique (6432): Température de l'air & dewpoint: 19.08.2019 03:00:00 - 25.08.2019 03:00:00 (CEST)Chievres, Belgique (6432): Vitesse du vent & gusts: 19.08.2019 03:00:00 - 25.08.2019 03:00:00 (CEST)Chievres, Belgique (6432): Direction du vent: 19.08.2019 03:00:00 - 25.08.2019 03:00:00 (CEST)Chievres, Belgique (6432): reduced air pressure: 19.08.2019 03:00:00 - 25.08.2019 03:00:00 (CEST)Chievres, Belgique (6432): visibility: 19.08.2019 03:00:00 - 25.08.2019 03:00:00 (CEST)
Date & Time tt [°C] td [°C] ff [km/h] ff [knt] fx [km/h] fx [knt] dd ppp [hPa] vv [km]
25.08.2019 03:00:00 15,1 13,7 4 2 7 4 N 1018,3 14
25.08.2019 02:00:00 15,9 14,2 4 2 - - N 1018,3 15
25.08.2019 01:00:00 17,2 14,4 4 2 7 4 N 1018,6 19
25.08.2019 00:00:00 17,5 14,5 4 2 7 4 N 1018,6 20
24.08.2019 23:00:00 18,7 14,5 4 2 - - N 1018,6 20
24.08.2019 22:00:00 20,5 15,1 4 2 7 4 N 1018,6 20
24.08.2019 21:00:00 23,7 14,8 4 2 7 4 N 1018,2 20
24.08.2019 20:00:00 27,0 15,3 4 2 - - N 1018,1 20
24.08.2019 19:00:00 29,1 12,9 4 2 14 8 N 1018,1 20
24.08.2019 18:00:00 29,7 11,6 7 4 14 8 S 1018,3 20
24.08.2019 17:00:00 29,5 11,8 7 4 - - SSE 1018,7 20
24.08.2019 16:00:00 29,5 11,4 7 4 18 10 SSE 1019,0 19
24.08.2019 15:00:00 29,1 11,9 11 6 18 10 E 1019,3 19
24.08.2019 14:00:00 29,1 9,3 7 4 - - ESE 1019,7 20
24.08.2019 13:00:00 28,6 12,7 4 2 18 10 N 1020,1 20
24.08.2019 12:00:00 27,1 12,3 7 4 11 6 N 1020,7 20
24.08.2019 11:00:00 24,7 13,4 7 4 - - SE 1021,0 19
24.08.2019 10:00:00 21,2 14,3 4 2 7 4 N 1021,2 20
24.08.2019 09:00:00 17,5 14,0 4 2 4 2 N 1021,2 8
24.08.2019 08:00:00 14,1 12,0 2 1 - - - 1021,3 5
24.08.2019 07:00:00 11,3 10,2 4 2 4 2 N 1021,5 3,1
24.08.2019 06:00:00 11,5 10,4 4 2 4 2 N 1021,5 4,2
24.08.2019 05:00:00 13,0 11,0 2 1 - - - - 4,9
24.08.2019 04:00:00 13,1 11,5 4 2 4 2 N 1021,7 6
24.08.2019 03:00:00 13,1 11,8 4 2 4 2 N 1021,8 7
24.08.2019 02:00:00 14,9 12,5 4 2 - - N 1022,2 9
24.08.2019 01:00:00 15,4 13,1 4 2 4 2 N 1022,5 12
24.08.2019 00:00:00 16,6 13,1 4 2 4 2 N 1022,6 18
23.08.2019 23:00:00 17,6 13,3 4 2 - - N 1022,6 19
23.08.2019 22:00:00 18,7 13,1 4 2 11 6 N 1022,7 20
23.08.2019 21:00:00 20,6 14,4 7 4 14 8 NE 1022,8 20
23.08.2019 20:00:00 24,7 13,0 11 6 - - NE 1022,6 20
23.08.2019 19:00:00 26,4 12,5 14 8 22 12 NE 1022,7 20
23.08.2019 18:00:00 27,4 11,9 14 8 22 12 NE 1023,2 20
23.08.2019 17:00:00 27,5 11,8 7 4 - - ENE 1023,5 20
23.08.2019 16:00:00 26,6 12,2 7 4 22 12 NE 1024,0 16
23.08.2019 15:00:00 26,0 12,3 7 4 22 12 E 1024,5 20
23.08.2019 14:00:00 26,4 12,8 4 2 - - N 1025,0 20
23.08.2019 13:00:00 24,9 10,7 7 4 14 8 ENE 1025,5 20
23.08.2019 12:00:00 23,4 13,2 4 2 11 6 N 1026,0 14
23.08.2019 11:00:00 20,9 14,0 4 2 - - N 1026,2 12
23.08.2019 10:00:00 18,4 13,3 4 2 7 4 N 1026,4 10
23.08.2019 09:00:00 15,3 12,3 4 2 4 2 N 1026,7 9
23.08.2019 08:00:00 11,1 10,3 4 2 - - N 1026,7 8
23.08.2019 07:00:00 9,0 8,1 4 2 4 2 N 1026,7 8
23.08.2019 06:00:00 9,8 8,6 4 2 4 2 N 1026,5 12
23.08.2019 05:00:00 10,3 8,7 4 2 - - N 1026,5 14
23.08.2019 04:00:00 10,2 9,0 4 2 4 2 N 1026,7 14
23.08.2019 03:00:00 10,0 8,8 4 2 11 6 N 1027,0 15
23.08.2019 02:00:00 10,8 9,4 4 2 - - N 1027,0 17
23.08.2019 01:00:00 12,1 9,8 4 2 4 2 N 1027,2 20
23.08.2019 00:00:00 13,3 9,9 4 2 4 2 N 1027,0 20
22.08.2019 23:00:00 14,8 10,0 4 2 - - N 1026,7 20
22.08.2019 22:00:00 17,6 9,2 4 2 11 6 N 1026,7 20
22.08.2019 21:00:00 19,9 9,1 11 6 14 8 NW 1026,0 20
22.08.2019 20:00:00 23,2 8,0 7 4 - - NW 1025,4 20
22.08.2019 19:00:00 24,7 7,1 7 4 18 10 W 1025,0 20
22.08.2019 18:00:00 25,2 7,4 11 6 22 12 WSW 1025,2 20
22.08.2019 17:00:00 25,0 8,9 11 6 - - WSW 1025,2 15
22.08.2019 16:00:00 24,4 10,4 7 4 22 12 SW 1025,5 19
22.08.2019 15:00:00 24,2 10,5 7 4 22 12 SSW 1025,9 20
22.08.2019 14:00:00 23,6 9,7 11 6 - - W 1026,2 20
22.08.2019 13:00:00 23,1 9,8 11 6 18 10 W 1026,5 20
22.08.2019 12:00:00 21,9 9,6 11 6 14 8 SW 1026,7 20
22.08.2019 11:00:00 19,7 10,2 4 2 - - N 1026,9 19
22.08.2019 10:00:00 17,2 11,1 4 2 7 4 N 1026,7 14
22.08.2019 09:00:00 14,9 11,6 4 2 4 2 N 1026,5 17
22.08.2019 08:00:00 11,3 10,0 2 1 - - - 1026,5 5
22.08.2019 07:00:00 8,5 7,6 4 2 4 2 N 1026,2 8
22.08.2019 06:00:00 8,5 7,6 4 2 4 2 N 1025,7 7
22.08.2019 05:00:00 9,1 8,1 4 2 - - N 1026,0 9
22.08.2019 04:00:00 9,6 8,5 4 2 4 2 N 1026,0 5
22.08.2019 03:00:00 10,0 8,6 4 2 0 0 N 1026,2 13
22.08.2019 02:00:00 10,6 9,2 4 2 - - N 1026,4 11
22.08.2019 01:00:00 11,6 9,9 4 2 4 2 N 1026,7 16
22.08.2019 00:00:00 12,4 10,1 2 1 0 0 - 1026,9 10
21.08.2019 23:00:00 13,1 10,2 0 0 - - N 1026,9 10
21.08.2019 22:00:00 15,0 11,1 4 2 4 2 N 1027,0 18
21.08.2019 21:00:00 17,4 11,3 4 2 4 2 N 1026,5 19
21.08.2019 20:00:00 21,4 9,4 4 2 - - N 1026,2 20
21.08.2019 19:00:00 22,4 9,9 4 2 11 6 N 1026,2 20
21.08.2019 18:00:00 22,5 7,8 7 4 14 8 NE 1026,7 20
21.08.2019 17:00:00 22,6 7,4 4 2 - - N 1027,0 20
21.08.2019 16:00:00 23,1 6,4 4 2 11 6 N 1027,4 20
21.08.2019 15:00:00 21,8 7,9 4 2 18 10 N 1027,7 20
21.08.2019 14:00:00 20,9 7,6 4 2 - - N 1028,2 20
21.08.2019 13:00:00 20,6 8,3 4 2 11 6 N 1028,7 20
21.08.2019 12:00:00 19,1 8,9 4 2 11 6 N 1029,4 20
21.08.2019 11:00:00 18,0 11,7 4 2 - - N 1029,5 19
21.08.2019 10:00:00 16,0 12,3 4 2 7 4 N 1029,5 20
21.08.2019 09:00:00 13,5 10,8 4 2 7 4 N 1029,5 16
21.08.2019 08:00:00 10,3 8,7 4 2 - - N 1029,2 15
21.08.2019 07:00:00 7,5 6,6 4 2 4 2 N 1028,9 16
21.08.2019 06:00:00 7,9 6,6 4 2 7 4 N 1028,7 8
21.08.2019 05:00:00 7,7 6,3 4 2 - - N 1028,7 20
21.08.2019 04:00:00 8,8 7,2 4 2 7 4 N 1028,5 20
21.08.2019 03:00:00 9,1 7,6 7 4 7 4 S 1028,5 20
21.08.2019 02:00:00 9,6 7,7 4 2 - - N 1028,5 20
21.08.2019 01:00:00 9,6 8,0 7 4 7 4 N 1028,4 20
21.08.2019 00:00:00 12,1 8,7 4 2 4 2 N 1028,0 20
20.08.2019 23:00:00 13,1 8,9 4 2 - - N 1027,5 20
20.08.2019 22:00:00 15,6 8,8 7 4 7 4 W 1027,0 20
20.08.2019 21:00:00 17,2 9,1 7 4 22 12 W 1026,4 20
20.08.2019 20:00:00 19,7 8,5 14 8 - - W 1025,7 20
20.08.2019 19:00:00 20,7 9,4 18 10 29 16 WNW 1025,0 20
20.08.2019 18:00:00 20,3 10,0 18 10 25 14 WNW 1024,7 20
20.08.2019 17:00:00 21,0 8,7 14 8 - - W 1024,5 15
20.08.2019 16:00:00 21,5 8,5 14 8 29 16 W 1024,0 20
20.08.2019 15:00:00 20,2 8,9 14 8 29 16 W 1023,8 20
20.08.2019 14:00:00 19,6 10,0 18 10 - - WSW 1023,7 20
20.08.2019 13:00:00 20,1 10,5 14 8 32 18 WSW 1023,7 20
20.08.2019 12:00:00 19,3 11,6 14 8 29 16 WSW 1023,7 20
20.08.2019 11:00:00 17,5 12,3 18 10 - - WSW 1023,5 20
20.08.2019 10:00:00 16,5 12,9 11 6 22 12 SW 1023,6 20
20.08.2019 09:00:00 14,4 12,5 11 6 14 8 SW 1023,2 20
20.08.2019 08:00:00 12,4 11,4 7 4 - - SSW 1023,0 12
20.08.2019 07:00:00 10,5 9,6 7 4 11 6 S 1022,3 11
20.08.2019 06:00:00 10,5 9,6 7 4 11 6 S 1021,7 11
20.08.2019 05:00:00 11,1 10,1 4 2 - - N 1021,7 13
20.08.2019 04:00:00 11,8 10,5 7 4 18 10 N 1021,7 17
20.08.2019 03:00:00 12,5 11,1 11 6 18 10 SW 1021,5 16
20.08.2019 02:00:00 12,1 10,8 11 6 - - SSW 1021,5 16
20.08.2019 01:00:00 12,6 10,6 11 6 18 10 SW 1021,3 20
20.08.2019 00:00:00 12,1 10,0 11 6 14 8 SSW 1021,2 20
19.08.2019 23:00:00 13,0 9,7 7 4 - - SSW 1020,7 20
19.08.2019 22:00:00 14,8 9,7 7 4 18 10 WSW 1020,5 20
19.08.2019 21:00:00 16,9 9,3 11 6 25 14 W 1019,7 20
19.08.2019 20:00:00 19,2 9,9 18 10 - - WSW 1019,0 20
19.08.2019 19:00:00 20,2 10,0 18 10 32 18 WSW 1018,7 20
19.08.2019 18:00:00 20,4 10,3 18 10 32 18 WSW 1018,5 10
19.08.2019 17:00:00 20,5 10,0 18 10 - - W 1018,3 19
19.08.2019 16:00:00 20,7 10,7 22 12 36 19 W 1018,2 20
19.08.2019 15:00:00 21,4 11,8 18 10 40 21 WSW 1017,8 20
19.08.2019 14:00:00 21,6 11,7 29 16 - - SW 1017,2 20
19.08.2019 13:00:00 19,9 11,2 25 14 36 19 SW 1017,2 19
19.08.2019 12:00:00 19,7 11,8 22 12 32 18 WSW 1017,1 20
19.08.2019 11:00:00 17,7 12,3 22 12 - - SW 1016,7 20
19.08.2019 10:00:00 16,4 12,7 18 10 29 16 SSW 1016,2 20
19.08.2019 09:00:00 15,1 12,3 18 10 25 14 SSW 1016,2 20
19.08.2019 08:00:00 13,5 11,5 14 8 - - SSW 1016,0 20
19.08.2019 07:00:00 12,1 10,6 14 8 25 14 SSW 1015,6 20
19.08.2019 06:00:00 11,8 10,4 14 8 22 12 SSW 1014,8 20
19.08.2019 05:00:00 12,1 10,5 14 8 - - SSW 1014,6 20
19.08.2019 04:00:00 12,3 10,9 11 6 18 10 SSW 1014,2 19
19.08.2019 03:00:00 12,1 10,8 11 6 18 10 SSW 1013,8 18

tt = Température de l'air
td = dewpoint
ff = Vitesse du vent
fx = gusts
dd = Direction du vent
ppp = reduced air pressure
vv = visibility

stations d'obs. à proximité